KT5AL Weather Reports


time (UTC)temp
C
wind
direction
speed
KPH
gust
KPH
rain 1hr
cm
rain 24hr
cm
rain mn
cm
humidity
%
barometer
mb
20210518194503 18 90 11.3 17.7 0.00 4.04 4.04 100 1008.0
20210518194006 17 45 8.0 9.7 0.00 4.04 4.04 100 1008.0
20210518193504 17 67 11.3 14.5 0.00 4.04 4.04 100 1007.7
20210518192506 17 90 17.7 24.1 0.00 4.04 4.04 99 1008.0
20210518191006 17 112 11.3 12.9 0.00 4.04 4.04 100 1008.0
20210518190004 17 90 12.9 16.1 0.00 4.04 4.04 99 1008.0
20210518185010 17 67 11.3 14.5 0.00 4.04 4.04 99 1009.0
20210518184506 17 22 9.7 12.9 0.00 4.04 4.04 99 1009.4
20210518182505 17 22 9.7 12.9 0.00 4.04 4.04 100 1010.0
20210518182003 16 45 9.7 12.9 0.00 4.04 4.04 100 1010.0
20210518180004 16 360 6.4 8.0 0.00 4.04 4.04 100 1010.7
20210518175003 16 315 8.0 11.3 0.00 4.04 4.04 100 1010.7
20210518173508 16 292 12.9 16.1 0.00 3.96 3.96 100 1011.4
20210518171508 16 247 11.3 14.5 0.00 3.73 3.73 100 1011.4
20210518165508 16 247 11.3 16.1 0.00 3.45 3.45 100 1012.4
20210518164506 16 247 3.2 8.0 0.00 2.87 2.87 100 1011.0
20210518162005 16 247 12.9 16.1 0.00 2.49 2.49 100 1010.7
20210518161509 16 292 9.7 11.3 0.00 2.44 2.44 100 1010.4
20210518160506 16 337 8.0 9.7 0.00 2.39 2.39 100 1009.7
20210518160003 16 337 9.7 16.1 0.00 2.36 2.36 100 1009.7
20210518155506 16 337 9.7 14.5 0.00 2.34 2.34 100 1010.0
20210518155010 16 337 14.5 20.9 0.00 2.34 2.34 100 1010.0
20210518154506 16 337 9.7 14.5 0.00 2.29 2.29 100 1010.4
20210518154004 16 292 8.0 9.7 0.00 2.08 2.08 100 1010.4
20210518153028 16 292 0.0 0.0 0.00 1.47 1.47 100 1010.4
20210518152506 16 292 4.8 8.0 0.00 1.47 1.47 100 1009.7
20210518150506 16 270 12.9 16.1 0.00 1.30 1.30 100 1010.0
20210518145005 16 292 16.1 16.1 0.00 0.91 0.91 100 1010.0
20210518144508 16 292 11.3 12.9 0.00 0.84 0.84 100 1010.0
20210518144006 16 315 12.9 16.1 0.00 0.81 0.81 100 1010.0
20210518143510 16 292 9.7 11.3 0.00 0.79 0.79 100 1010.0
20210518143006 16 292 8.0 11.3 0.00 0.79 0.79 100 1010.0
20210518142503 16 292 14.5 16.1 0.00 0.79 0.79 100 1010.0
20210518142006 16 292 14.5 17.7 0.00 0.79 0.79 100 1010.0
20210518141005 16 292 12.9 12.9 0.00 0.76 0.76 100 1010.0
20210518140508 16 315 9.7 12.9 0.00 0.74 0.74 100 1009.7
20210518135007 16 337 8.0 9.7 0.00 0.76 0.74 100 1009.4
20210518134504 16 337 9.7 12.9 0.00 0.79 0.74 100 1009.0
20210518134007 16 337 11.3 12.9 0.00 0.79 0.74 100 1009.0
20210518133504 16 45 6.4 9.7 0.00 0.79 0.74 100 1009.0
20210518133008 16 360 9.7 11.3 0.00 0.79 0.74 100 1009.0
20210518132007 16 337 6.4 8.0 0.00 0.79 0.74 100 1008.7
20210518131503 16 337 8.0 9.7 0.00 0.81 0.74 100 1008.7
20210518131006 16 337 4.8 6.4 0.00 0.81 0.74 100 1008.7
20210518130504 16 337 11.3 16.1 0.00 0.81 0.74 100 1008.7
20210518130007 16 337 8.0 12.9 0.00 0.84 0.74 100 1008.7
20210518125505 16 360 9.7 12.9 0.00 0.86 0.74 100 1008.7
20210518124004 16 292 11.3 14.5 0.00 1.02 0.74 100 1008.7
20210518122005 16 292 12.9 16.1 0.00 1.14 0.74 100 1008.0
20210518121003 16 292 9.7 9.7 0.00 1.17 0.74 100 1008.7
20210518120506 16 292 11.3 14.5 0.00 1.17 0.74 100 1009.0
20210518120003 16 270 8.0 9.7 0.00 1.17 0.74 100 1009.0
20210518115507 16 247 11.3 12.9 0.00 1.17 0.74 100 1009.0
20210518114505 16 247 16.1 17.7 0.00 1.17 0.74 100 1009.0
20210518114009 16 247 11.3 14.5 0.00 1.17 0.74 100 1009.0
20210518113006 16 247 11.3 12.9 0.00 1.17 0.74 100 1008.7
20210518112504 16 247 9.7 12.9 0.00 1.17 0.74 100 1008.0
20210518111007 16 180 3.2 3.2 0.00 1.17 0.74 100 1007.7
20210518104503 16 67 0.0 1.6 0.00 1.17 0.74 100 1006.6
20210518104006 16 67 6.4 8.0 0.00 1.17 0.74 100 1006.6
20210518102013 16 112 8.0 9.7 0.00 1.17 0.74 100 1006.6
20210518101004 16 157 12.9 16.1 0.00 1.17 0.74 100 1006.0
20210518100504 16 112 17.7 24.1 0.00 1.17 0.74 100 1006.0
20210518100007 16 157 17.7 25.7 0.00 1.17 0.74 100 1006.0
20210518095504 16 112 22.5 30.6 0.00 1.19 0.74 99 1006.0
20210518095007 16 112 22.5 29.0 0.00 1.19 0.74 99 1006.0
20210518094504 16 112 19.3 22.5 0.00 1.19 0.74 99 1005.6
20210518094007 16 112 17.7 22.5 0.00 1.24 0.74 99 1005.6
20210518093505 16 112 17.7 22.5 0.00 1.24 0.74 99 1005.3
20210518092503 16 112 20.9 29.0 0.00 1.27 0.74 99 1004.9
20210518092006 16 112 24.1 30.6 0.00 1.30 0.74 99 1004.9
20210518090006 16 112 16.1 22.5 0.00 1.47 0.74 99 1005.3
20210518085503 16 67 9.7 11.3 0.00 1.47 0.74 99 1006.0
20210518085007 16 90 17.7 20.9 0.00 1.47 0.74 99 1006.0
20210518084505 16 292 0.0 1.6 0.00 1.50 0.74 99 1003.9
20210518083005 16 67 12.9 17.7 0.00 1.52 0.74 99 1006.3
20210518082508 16 112 9.7 12.9 0.00 1.52 0.74 99 1007.7
20210518081531 16 337 1.6 8.0 0.00 1.55 0.74 99 1008.3
20210518080004 16 292 9.7 11.3 0.00 1.55 0.74 98 1009.0
20210518075508 16 292 8.0 9.7 0.00 1.55 0.74 98 1010.0
20210518073509 17 292 16.1 19.3 0.00 1.50 0.69 97 1010.4
20210518073005 17 292 19.3 22.5 0.00 1.50 0.69 97 1010.4
20210518072508 17 292 19.3 24.1 0.00 1.50 0.69 97 1011.4
20210518072005 17 270 24.1 29.0 0.00 1.50 0.69 97 1011.4
20210518071508 17 270 22.5 30.6 0.00 1.50 0.69 96 1011.4
20210518071005 17 270 19.3 22.5 0.00 1.47 0.66 95 1011.4
20210518070508 17 270 27.4 32.2 0.00 1.47 0.66 95 1011.4
20210518065506 17 270 20.9 25.7 0.00 1.47 0.66 97 1010.4
20210518065003 17 292 27.4 32.2 0.00 1.45 0.64 96 1010.4
20210518064007 17 292 22.5 32.2 0.00 1.42 0.61 98 1010.7
20210518062506 18 292 30.6 35.4 0.00 1.35 0.53 98 1010.7
20210518062003 18 270 30.6 33.8 0.00 1.32 0.51 99 1010.7
20210518055504 18 270 33.8 41.8 0.00 1.30 0.48 98 1009.0
20210518055007 18 292 33.8 45.1 0.00 1.30 0.48 97 1009.0
20210518054006 18 270 40.2 51.5 0.00 1.22 0.41 96 1009.4
20210518052006 21 247 12.9 16.1 0.00 0.81 0.00 96 1008.3
20210518051510 21 247 12.9 16.1 0.00 0.81 0.00 96 1008.3
20210518050007 21 247 14.5 17.7 0.00 0.81 0.00 96 1008.0
20210518045504 21 247 12.9 14.5 0.00 0.81 0.81 96 1007.0
20210518044005 21 157 0.0 3.2 0.00 0.81 0.81 94 1006.6
20210518043005 21 112 1.6 4.8 0.00 0.81 0.81 94 1006.3
20210518042502 21 112 9.7 9.7 0.00 0.81 0.81 94 1006.3
20210518042006 21 90 8.0 11.3 0.00 0.81 0.81 94 1006.3
20210518041503 21 112 11.3 12.9 0.00 0.81 0.81 92 1006.6
20210518040509 21 157 6.4 8.0 0.00 0.81 0.81 91 1006.6
20210518033507 21 112 12.9 16.1 0.00 0.84 0.81 91 1006.0
20210518032508 21 112 16.1 19.3 0.00 1.17 0.81 91 1006.0
20210518031507 21 90 9.7 12.9 0.00 1.17 0.81 91 1006.0
20210518025512 21 112 4.8 6.4 0.00 1.17 0.81 90 1005.6
20210518025006 20 112 6.4 6.4 0.00 1.17 0.81 88 1005.6
20210518024005 21 112 6.4 8.0 0.00 1.17 0.81 89 1005.6
20210518022504 21 112 8.0 8.0 0.00 1.17 0.81 86 1005.3
20210518021505 21 112 8.0 9.7 0.00 1.17 0.81 86 1005.3
20210518020505 21 135 6.4 8.0 0.00 1.17 0.81 84 1005.3
20210518020008 21 157 6.4 9.7 0.00 1.17 0.81 83 1005.3
20210518015512 21 157 6.4 8.0 0.00 1.17 0.81 82 1004.9
20210518013007 22 135 6.4 8.0 0.00 1.17 0.81 80 1004.9
20210518012505 22 157 9.7 14.5 0.00 1.17 0.81 80 1004.6
20210518011935 23 157 12.9 19.3 0.00 1.17 0.81 78 1004.6
20210518005504 23 135 9.7 16.1 0.00 1.17 0.81 73 1003.6
20210518005006 23 135 16.1 20.9 0.00 1.17 0.81 73 1003.6
20210518004005 24 135 14.5 17.7 0.00 1.17 0.81 72 1003.6
20210518001505 24 112 25.7 30.6 0.00 1.17 0.81 71 1002.9
20210518001002 24 135 24.1 32.2 0.00 1.17 0.81 69 1002.9
20210517230507 26 112 16.1 19.3 0.00 1.17 0.81 59 1001.2
20210517225506 27 90 9.7 12.9 0.00 1.17 0.81 57 1000.9
20210517222003 26 67 9.7 11.3 0.00 1.17 0.81 57 1001.2
20210517221506 26 45 8.0 9.7 0.00 1.17 0.81 57 1001.6
20210517220505 26 90 9.7 12.9 0.00 1.17 0.81 56 1001.9
20210517214006 26 112 9.7 11.3 0.00 1.17 0.81 60 1002.2
20210517212002 26 112 14.5 16.1 0.00 1.17 0.81 60 1002.2
20210517211505 26 67 11.3 17.7 0.00 1.17 0.81 62 1002.6
20210517210505 25 67 16.1 19.3 0.00 1.17 0.81 65 1002.6
20210517205005 25 67 14.5 17.7 0.00 1.17 0.81 66 1002.9
20210517201005 25 112 14.5 17.7 0.00 1.17 0.81 71 1003.9
20210517200503 25 112 16.1 17.7 0.00 1.17 0.81 69 1004.3
20210517200006 25 112 12.9 16.1 0.00 1.17 0.81 71 1004.3
20210517195504 25 112 9.7 12.9 0.00 1.17 0.81 72 1004.6